Location: Colle Santa Colomba
(42.0333°N, 12.5667°E)
Time: 22:12:15
(UTC+00:00)

USA 229 - Pass Details

Date: 25 October 2021
Orbit: 946 x 1266 km, 63.4° (Epoch: 25 November)

Event Time Altitude Azimuth Distance (km) Brightness Sun altitude
Rises 16:39:24 0° 190° (S) 3,608 6.8 -5.6°
Reaches altitude 10° 16:42:01 10° 183° (S) 2,684 6.0 -6.1°
Maximum altitude 16:47:50 42° 115° (ESE) 1,390 4.0 -7.1°
Drops below altitude 10° 16:53:59 10° 47° (NE) 2,849 5.4 -8.3°
Enters shadow 16:56:30 - 42° (NE) 3,733 6.1 -8.7°
